Pittsburgh Allegheny Co., PA

9:02 AM EDT on September 22, 2017 (GMT -0400)
Allegheny County

Weather History for KAGC - January, 2013

Change the Weather History Date:

Friday, January 18, 2013

  Actual Average Record
Temperature  
Mean Temperature 24 °F -  
Max Temperature 30 °F 37 °F 51 °F (1999)
Min Temperature 19 °F 22 °F 1 °F (1997)
Degree Days  
Heating Degree Days 40    
Moisture  
Dew Point 14 °F    
Average Humidity 62    
Maximum Humidity 86    
Minimum Humidity 47    
Precipitation  
Precipitation 0.03 in - - ()
Sea Level Pressure  
Sea Level Pressure 30.37 in    
Wind  
Wind Speed 12 mph (WNW)    
Max Wind Speed 21 mph    
Max Gust Speed 29 mph    
Visibility 8 miles    
Events Fog , Snow    
Averages and records for this station are not official NWS values.
T = Trace of Precipitation, MM = Missing Value Source: NWS Daily Summary

Daily Weather History Graph

Daily Weather History Graph

Search for Another Location

Airport or City:

Trip Planner

Search our weather history database for the weather conditions in past years. The results will help you decide how hot, cold, wet, or windy it might be!

Date:

Astronomy

Jan. 18, 2013 Rise Set
Actual Time 7:39 AM EST 5:21 PM EST
Civil Twilight 7:09 AM EST 5:51 PM EST
Nautical Twilight 6:36 AM EST 6:24 PM EST
Astronomical Twilight 6:03 AM EST 6:57 PM EST
Moon 11:15 AM EST (1/18) 12:11 AM EST (1/18)
Length of Visible Light 10h 42m
Length of Day
9h 42m
Waxing Crescent, 47% of the Moon is Illuminated
Jan 18
Waxing Crescent
Jan 18
First Quarter
Jan 26
Full
Feb 3
Last Quarter
Feb 10
New

Hourly Weather History & Observations

Time (EST) Temp. Windchill Dew Point Humidity Pressure Visibility Wind Dir Wind Speed Gust Speed Precip Events Conditions
12:53 AM 30.9 °F 20.7 °F 21.9 °F 69% 30.20 in 10.0 mi NW 13.8 mph 23.0 mph N/A   Mostly Cloudy
1:53 AM 28.0 °F 20.0 °F 18.0 °F 66% 30.25 in 10.0 mi NW 8.1 mph 21.9 mph N/A   Overcast
2:53 AM 27.0 °F 17.3 °F 15.1 °F 61% 30.30 in 10.0 mi NW 10.4 mph 23.0 mph N/A   Clear
3:53 AM 26.1 °F 12.7 °F 17.1 °F 69% 30.34 in 4.0 mi NW 18.4 mph 26.5 mph 0.00 in Snow Light Snow
3:55 AM 24.8 °F 10.3 °F 17.6 °F 74% 30.28 in 1.8 mi NNW 20.7 mph 28.8 mph 0.00 in Snow Light Snow
4:05 AM 23.0 °F 10.1 °F 19.4 °F 86% 30.29 in 0.5 mi NW 15.0 mph 25.3 mph 0.00 in Fog , Snow Snow
4:13 AM 23.0 °F 11.1 °F 19.4 °F 86% 30.29 in 1.0 mi NW 12.7 mph 21.9 mph 0.00 in Snow Light Snow
4:26 AM 23.0 °F 13.1 °F 19.4 °F 86% 30.30 in 1.5 mi NNW 9.2 mph - 0.00 in Snow Light Snow
4:29 AM 23.0 °F 10.6 °F 19.4 °F 86% 30.30 in 2.5 mi NNW 13.8 mph 21.9 mph 0.00 in Snow Light Snow
4:36 AM 23.0 °F 9.6 °F 17.6 °F 80% 30.30 in 7.0 mi NW 16.1 mph 21.9 mph 0.00 in Snow Light Snow
4:53 AM 21.9 °F 9.8 °F 17.1 °F 82% 30.38 in 8.0 mi NW 12.7 mph 19.6 mph 0.00 in Snow Light Snow
5:42 AM 21.2 °F 8.3 °F 10.4 °F 63% 30.36 in 10.0 mi NW 13.8 mph 26.5 mph 0.00 in   Overcast
5:53 AM 21.0 °F 9.9 °F 9.0 °F 60% 30.43 in 10.0 mi NNW 10.4 mph 20.7 mph 0.00 in   Overcast
6:53 AM 19.4 °F 5.5 °F 5.0 °F 54% 30.40 in 10.0 mi NW 15.0 mph 19.6 mph N/A   Clear
7:53 AM 19.0 °F 10.0 °F 6.1 °F 57% 30.47 in 10.0 mi NW 6.9 mph - N/A   Clear
8:53 AM 19.9 °F 13.4 °F 7.0 °F 57% 30.49 in 10.0 mi Variable 4.6 mph - N/A   Clear
9:53 AM 21.9 °F 13.4 °F 8.1 °F 55% 30.52 in 10.0 mi NNW 6.9 mph - N/A   Clear
10:53 AM 23.0 °F 17.0 °F 9.0 °F 55% 30.52 in 10.0 mi NNW 4.6 mph - N/A   Clear
11:53 AM 25.0 °F 17.1 °F 10.0 °F 53% 30.49 in 10.0 mi West 6.9 mph - N/A   Clear
12:53 PM 27.0 °F 18.7 °F 12.0 °F 53% 30.45 in 10.0 mi West 8.1 mph - 0.01 in   Clear
1:53 PM 28.9 °F 22.8 °F 12.0 °F 49% 30.45 in 10.0 mi Variable 5.8 mph - 0.01 in   Clear
2:53 PM 30.0 °F 20.5 °F 12.0 °F 47% 30.43 in 10.0 mi SSW 11.5 mph - 0.01 in   Clear
3:53 PM 30.0 °F 19.5 °F 15.1 °F 54% 30.42 in 10.0 mi SSW 13.8 mph 17.3 mph N/A   Clear
4:53 PM 30.9 °F 21.7 °F 14.0 °F 50% 30.42 in 10.0 mi South 11.5 mph - N/A   Clear
5:53 PM 30.0 °F 22.4 °F 14.0 °F 51% 30.39 in 10.0 mi South 8.1 mph - N/A   Clear
6:53 PM 28.9 °F 19.8 °F 14.0 °F 54% 30.39 in 10.0 mi South 10.4 mph - N/A   Clear
7:53 PM 28.9 °F 19.2 °F 12.9 °F 51% 30.38 in 10.0 mi South 11.5 mph - N/A   Clear
8:53 PM 28.9 °F 18.6 °F 14.0 °F 54% 30.36 in 10.0 mi South 12.7 mph - N/A   Clear
9:53 PM 30.0 °F 20.0 °F 14.0 °F 51% 30.34 in 10.0 mi South 12.7 mph - N/A   Clear
10:53 PM 30.0 °F 20.5 °F 14.0 °F 51% 30.30 in 10.0 mi South 11.5 mph - N/A   Clear
11:53 PM 30.9 °F 21.7 °F 15.1 °F 52% 30.28 in 10.0 mi South 11.5 mph - N/A   Clear